QPF
0.00 0.00 0.00 0.00 0.00 0.00 0.00 0.00 0.00 0.00 0.00 0.00 0.00 0.00 0.00 0.00 0.00 0.00 0.00 0.00 0.00 0.00 0.00 0.00 0.00 0.00 0.00 0.00 0.01 0.01 0.03 0.05 0.03 0.02 0.02 0.04 0.04 0.01 0.01 0.00 0.00 0.00 0.00
0.00 0.00 0.00 0.00 0.00 0.00 0.00 0.00 0.00 0.00 0.00 0.00 0.00 0.00 0.00 0.00 0.00 0.00 0.00 0.00 0.00 0.00 0.00 0.00 0.00 0.00 0.00 0.00 0.00 0.00 0.00 0.01 0.01 0.01 0.01 0.02 0.06 0.09 0.09 0.07 0.05 0.03 0.01
0.00 0.00 0.00 0.00 0.00 0.00 0.00 0.00 0.00 0.00 0.00 0.00 0.00 0.00 0.00 0.00 0.00 0.00 0.00 0.00 0.00 0.00 0.00 0.00 0.00 0.00 0.00 0.00 0.00 0.00 0.00 0.00 0.00 0.00 0.00 0.00 0.01 0.04 0.03 0.03 0.04 0.02 0.03
0.00 0.00 0.00 0.00 0.00 0.00 0.00 0.00 0.00 0.00 0.00 0.00 0.00 0.00 0.00 0.00 0.00 0.00 0.00 0.00 0.00 0.00 0.00 0.00 0.00 0.00 0.00 0.00 0.00 0.00 0.00 0.00 0.00 0.00 0.00 0.00 0.00 0.00 0.00 0.01 0.01 0.01 0.00
0.00 0.00 0.00 0.00 0.00 0.00 0.00 0.00 0.00 0.00 0.00 0.00 0.00 0.00 0.00 0.00 0.00 0.00 0.00 0.00 0.00 0.00 0.00 0.00 0.00 0.00 0.00 0.00 0.00 0.00 0.00 0.00 0.00 0.00 0.00 0.00 0.00 0.00 0.00 0.00 0.00 0.00 0.00
0.00 0.00 0.00 0.00 0.00 0.00 0.00 0.00 0.00 0.00 0.00 0.00 0.00 0.00 0.00 0.00 0.00 0.00 0.00 0.00 0.00 0.00 0.00 0.00 0.00 0.00 0.00 0.00 0.00 0.00 0.00 0.00 0.00 0.00 0.00 0.00 0.00 0.00 0.00 0.00 0.00 0.00 0.00
0.00 0.00 0.00 0.00 0.00 0.00 0.00 0.00 0.00 0.00 0.00 0.00 0.00 0.00 0.00 0.00 0.00 0.00 0.00 0.00 0.00 0.00 0.00 0.00 0.00 0.00 0.00 0.00 0.00 0.00 0.00 0.00 0.00 0.00 0.00 0.00 0.00 0.00 0.00 0.00 0.00 0.00 0.00
0.00 0.00 0.00 0.00 0.00 0.00 0.00 0.00 0.00 0.00 0.00 0.00 0.00 0.00 0.00 0.00 0.00 0.00 0.00 0.00 0.00 0.00 0.00 0.00 0.00 0.00 0.00 0.00 0.00 0.00 0.00 0.00 0.00 0.00 0.00 0.00 0.00 0.00 0.00 0.00 0.00 0.00 0.00
0.00 0.00 0.00 0.00 0.00 0.00 0.00 0.00 0.00 0.00 0.00 0.00 0.00 0.00 0.00 0.00 0.00 0.00 0.00 0.00 0.00 0.00 0.00 0.00 0.00 0.00 0.00 0.00 0.00 0.00 0.00 0.00 0.00 0.00 0.00 0.00 0.00 0.00 0.00 0.00 0.00 0.00 0.00
0.00 0.00 0.00 0.00 0.00 0.00 0.00 0.00 0.00 0.00 0.00 0.00 0.00 0.00 0.00 0.00 0.00 0.00 0.00 0.00 0.00 0.00 0.00 0.00 0.00 0.00 0.00 0.00 0.00 0.00 0.00 0.00 0.00 0.00 0.00 0.00 0.00 0.00 0.00 0.00 0.00 0.00 0.01
0.00 0.00 0.00 0.00 0.00 0.00 0.00 0.00 0.00 0.00 0.00 0.00 0.00 0.00 0.00 0.00 0.00 0.00 0.00 0.00 0.00 0.00 0.00 0.00 0.00 0.00 0.00 0.00 0.00 0.00 0.00 0.00 0.00 0.00 0.00 0.00 0.00 0.00 0.00 0.00 0.00 0.00 0.00
0.00 0.00 0.00 0.00 0.00 0.00 0.00 0.00 0.00 0.00 0.00 0.00 0.00 0.00 0.00 0.00 0.00 0.00 0.00 0.00 0.00 0.00 0.00 0.00 0.00 0.00 0.00 0.00 0.00 0.00 0.00 0.00 0.00 0.00 0.00 0.00 0.00 0.00 0.00 0.01 0.01 0.01 0.01
0.00 0.00 0.00 0.00 0.00 0.00 0.00 0.00 0.00 0.00 0.00 0.00 0.00 0.00 0.00 0.00 0.00 0.00 0.00 0.00 0.00 0.00 0.00 0.00 0.00 0.00 0.00 0.00 0.00 0.00 0.00 0.00 0.00 0.00 0.00 0.00 0.00 0.00 0.00 0.00 0.00 0.00 0.01
0.00 0.00 0.00 0.00 0.00 0.00 0.00 0.00 0.00 0.00 0.00 0.00 0.00 0.00 0.00 0.00 0.00 0.00 0.00 0.00 0.00 0.00 0.00 0.00 0.00 0.00 0.00 0.00 0.00 0.00 0.00 0.00 0.00 0.00 0.00 0.00 0.00 0.00 0.00 0.00 0.00 0.00 0.00
0.00 0.00 0.00 0.00 0.00 0.00 0.00 0.00 0.00 0.00 0.00 0.00 0.00 0.00 0.00 0.00 0.00 0.00 0.00 0.00 0.00 0.00 0.00 0.00 0.00 0.00 0.00 0.00 0.00 0.00 0.00 0.00 0.00 0.00 0.00 0.00 0.00 0.00 0.00 0.00 0.00 0.00 0.00
0.00 0.00 0.00 0.00 0.00 0.00 0.00 0.00 0.00 0.00 0.00 0.00 0.00 0.00 0.00 0.00 0.00 0.00 0.00 0.00 0.00 0.00 0.00 0.00 0.00 0.00 0.00 0.00 0.00 0.00 0.00 0.00 0.00 0.00 0.00 0.00 0.00 0.00 0.00 0.00 0.00 0.00 0.00
0.00 0.00 0.00 0.00 0.00 0.00 0.00 0.00 0.00 0.00 0.00 0.00 0.00 0.00 0.00 0.00 0.00 0.00 0.00 0.00 0.00 0.00 0.00 0.00 0.00 0.00 0.00 0.00 0.00 0.00 0.00 0.00 0.00 0.00 0.00 0.00 0.00 0.00 0.00 0.00 0.00 0.00 0.00
0.00 0.00 0.00 0.00 0.00 0.00 0.00 0.00 0.00 0.00 0.00 0.00 0.00 0.00 0.00 0.00 0.00 0.00 0.00 0.00 0.00 0.00 0.00 0.00 0.00 0.00 0.00 0.00 0.00 0.00 0.00 0.00 0.00 0.00 0.00 0.00 0.00 0.00 0.00 0.00 0.00 0.00 0.00
0.00 0.00 0.00 0.00 0.00 0.00 0.00 0.00 0.00 0.00 0.00 0.00 0.00 0.00 0.00 0.00 0.00 0.00 0.00 0.00 0.00 0.00 0.00 0.00 0.00 0.00 0.00 0.00 0.00 0.00 0.00 0.00 0.00 0.00 0.00 0.01 0.02 0.01 0.00 0.00 0.01 0.01 0.01
0.00 0.00 0.00 0.00 0.00 0.00 0.00 0.00 0.00 0.00 0.00 0.00 0.00 0.00 0.00 0.00 0.00 0.00 0.00 0.00 0.00 0.00 0.00 0.00 0.00 0.00 0.00 0.00 0.00 0.00 0.00 0.00 0.00 0.00 0.00 0.00 0.01 0.01 0.00 0.00 0.00 0.01 0.03
0.00 0.00 0.00 0.00 0.00 0.00 0.00 0.00 0.00 0.00 0.00 0.00 0.00 0.00 0.00 0.00 0.00 0.00 0.00 0.00 0.00 0.00 0.00 0.00 0.00 0.00 0.00 0.00 0.00 0.00 0.00 0.00 0.00 0.00 0.00 0.00 0.02 0.04 0.01 0.00 0.01 0.01 0.00
0.00 0.00 0.00 0.00 0.00 0.00 0.00 0.00 0.00 0.00 0.00 0.00 0.00 0.00 0.00 0.00 0.00 0.00 0.00 0.00 0.00 0.00 0.00 0.00 0.00 0.00 0.00 0.00 0.00 0.00 0.00 0.00 0.00 0.00 0.00 0.00 0.02 0.05 0.04 0.02 0.00 0.00 0.00
0.00 0.00 0.00 0.00 0.00 0.00 0.00 0.00 0.00 0.00 0.00 0.00 0.00 0.00 0.00 0.00 0.00 0.00 0.00 0.00 0.00 0.00 0.00 0.00 0.00 0.00 0.00 0.00 0.00 0.00 0.00 0.00 0.00 0.00 0.00 0.00 0.00 0.00 0.01 0.03 0.01 0.00 0.00
0.00 0.00 0.00 0.00 0.00 0.00 0.00 0.00 0.00 0.00 0.00 0.00 0.00 0.00 0.00 0.00 0.00 0.00 0.00 0.00 0.00 0.00 0.00 0.00 0.00 0.00 0.00 0.00 0.00 0.00 0.00 0.00 0.00 0.00 0.00 0.00 0.00 0.00 0.00 0.00 0.01 0.00 0.00
0.00 0.00 0.00 0.00 0.00 0.00 0.00 0.00 0.00 0.00 0.00 0.00 0.00 0.00 0.00 0.00 0.00 0.00 0.00 0.00 0.00 0.00 0.00 0.00 0.00 0.00 0.00 0.00 0.00 0.00 0.00 0.00 0.00 0.00 0.00 0.00 0.00 0.00 0.00 0.00 0.00 0.00 0.00
0.00 0.00 0.00 0.00 0.00 0.00 0.00 0.00 0.00 0.00 0.00 0.00 0.00 0.00 0.00 0.00 0.00 0.00 0.00 0.00 0.00 0.00 0.00 0.00 0.00 0.00 0.00 0.00 0.00 0.00 0.00 0.00 0.00 0.00 0.00 0.00 0.00 0.00 0.00 0.00 0.00 0.00 0.00
MSLP
1011.75 1012.00 1012.34 1012.73 1013.09 1013.46 1013.74 1013.90 1013.92 1013.81 1013.55 1013.48 1013.43 1013.06 1013.10 1012.76 1012.77 1013.12 1012.98 1012.33 1011.83 1011.72 1011.36 1010.92 1010.43 1009.89 1009.31 1008.84 1008.25 1007.67 1007.72 1008.01 1007.24 1006.39 1006.29 1005.69 1005.71 1005.35 1005.76 1004.15 1004.90 1004.09 1004.48
1012.59 1012.88 1013.27 1013.56 1013.96 1014.39 1014.69 1014.73 1014.61 1014.33 1014.41 1014.55 1014.40 1014.03 1013.57 1013.33 1013.30 1013.41 1013.07 1012.84 1012.33 1011.83 1011.71 1011.34 1010.82 1010.24 1009.70 1009.45 1008.70 1008.12 1007.56 1007.32 1007.06 1006.25 1006.23 1006.21 1005.68 1005.73 1005.62 1005.73 1004.93 1005.24 1004.44
1013.08 1013.60 1014.12 1014.21 1014.46 1014.80 1015.03 1015.18 1015.07 1014.98 1015.02 1014.87 1014.71 1014.39 1013.79 1013.84 1013.53 1014.13 1013.82 1013.67 1013.09 1012.50 1011.94 1011.44 1011.18 1010.72 1010.39 1009.88 1009.53 1008.95 1008.32 1007.65 1007.00 1006.13 1005.24 1005.07 1004.87 1004.75 1004.58 1004.67 1005.32 1005.29 1004.86
1013.85 1014.32 1014.88 1015.17 1015.29 1015.28 1015.57 1015.48 1015.61 1015.29 1015.31 1015.15 1014.88 1014.41 1014.41 1014.12 1014.59 1014.97 1014.49 1014.08 1013.31 1012.70 1012.34 1012.08 1011.73 1011.36 1011.57 1011.27 1010.59 1010.04 1009.42 1008.70 1007.86 1006.81 1005.59 1004.87 1004.52 1004.11 1003.97 1003.70 1003.38 1003.59 1003.74
1014.43 1014.78 1015.28 1015.68 1015.25 1015.30 1015.69 1016.08 1016.02 1015.83 1015.69 1015.47 1014.76 1014.68 1014.74 1014.39 1015.58 1015.69 1015.22 1014.49 1013.79 1012.99 1012.80 1012.66 1012.28 1012.26 1012.19 1011.76 1011.29 1010.75 1010.48 1009.83 1008.78 1007.56 1006.42 1005.52 1004.53 1003.94 1003.64 1003.30 1002.83 1002.45 1002.11
1014.52 1014.92 1015.02 1015.16 1015.48 1016.37 1016.37 1016.14 1016.13 1015.96 1015.75 1015.46 1015.25 1015.10 1014.94 1015.27 1016.03 1016.32 1016.21 1015.27 1014.27 1013.52 1013.03 1012.70 1012.34 1012.00 1011.42 1011.48 1011.21 1011.14 1011.04 1010.42 1009.63 1008.82 1007.80 1007.12 1006.22 1005.75 1005.45 1005.33 1004.70 1003.88 1003.13
1015.32 1015.52 1015.54 1015.72 1015.92 1016.27 1016.32 1016.37 1016.37 1016.14 1016.00 1015.71 1015.61 1015.57 1015.40 1016.05 1016.27 1016.48 1016.20 1015.09 1014.22 1013.47 1012.89 1012.38 1011.93 1011.31 1011.36 1011.25 1010.88 1010.57 1010.13 1009.83 1009.62 1009.16 1008.40 1007.99 1007.42 1007.04 1006.64 1006.40 1006.15 1006.06 1005.59
1015.46 1015.76 1016.06 1016.17 1016.28 1016.57 1016.58 1016.60 1016.64 1016.53 1016.42 1016.15 1015.95 1015.96 1015.86 1015.89 1016.11 1016.07 1015.76 1014.78 1014.11 1013.60 1013.03 1012.41 1011.81 1011.26 1010.73 1010.54 1010.12 1009.72 1009.22 1008.67 1008.20 1007.96 1007.91 1007.53 1007.32 1007.04 1007.07 1007.11 1007.10 1006.96 1006.60
1016.18 1016.50 1016.64 1016.71 1016.77 1016.97 1016.90 1016.95 1017.17 1016.99 1016.57 1016.24 1016.08 1015.93 1015.72 1015.54 1015.73 1015.83 1015.56 1014.60 1013.77 1013.08 1012.42 1011.96 1011.56 1010.85 1010.42 1010.01 1009.99 1009.47 1008.76 1007.98 1007.63 1007.30 1006.86 1006.65 1006.63 1006.65 1006.84 1006.92 1006.61 1006.48 1006.32
1016.70 1016.93 1017.24 1017.35 1017.37 1017.37 1017.45 1017.58 1017.57 1017.13 1016.70 1016.65 1016.29 1015.94 1015.83 1015.69 1015.64 1015.75 1015.42 1014.58 1013.66 1012.99 1012.43 1011.76 1010.89 1010.78 1010.79 1010.56 1010.42 1009.64 1008.55 1007.52 1007.15 1006.66 1006.44 1006.29 1006.34 1006.29 1006.24 1006.53 1006.28 1005.85 1005.63
1017.20 1017.41 1017.67 1017.83 1017.68 1017.96 1018.07 1018.06 1017.73 1017.21 1017.07 1016.85 1016.52 1016.04 1015.46 1015.50 1015.50 1015.85 1015.92 1015.20 1014.76 1013.93 1012.84 1011.62 1010.98 1010.77 1010.56 1010.05 1009.55 1009.03 1008.09 1006.98 1006.51 1006.23 1005.95 1005.81 1005.66 1005.51 1005.38 1005.31 1005.37 1005.30 1005.15
1017.64 1017.76 1018.16 1018.32 1018.27 1018.10 1018.39 1018.09 1017.72 1017.61 1017.35 1016.67 1015.94 1015.61 1015.54 1015.53 1015.65 1015.87 1015.84 1015.70 1015.34 1014.48 1013.35 1012.39 1011.78 1011.18 1010.44 1009.63 1008.96 1008.08 1007.17 1006.25 1005.65 1005.30 1005.30 1005.25 1005.27 1005.12 1004.85 1004.23 1004.23 1004.44 1004.63
1018.16 1018.49 1018.49 1018.54 1018.44 1018.19 1018.04 1018.02 1017.65 1018.09 1017.36 1016.69 1016.52 1016.42 1016.04 1015.82 1015.91 1016.14 1016.05 1015.75 1015.07 1014.41 1013.65 1012.84 1011.78 1011.07 1010.34 1009.42 1008.73 1007.81 1006.73 1005.58 1004.60 1004.78 1005.08 1005.04 1005.02 1004.88 1004.80 1004.68 1004.08 1004.07 1004.19
1018.81 1018.69 1018.62 1018.57 1018.71 1018.28 1018.00 1017.91 1018.15 1017.99 1017.85 1017.78 1018.06 1017.92 1017.21 1016.93 1016.97 1017.02 1016.56 1015.90 1015.12 1014.19 1013.44 1012.18 1011.66 1011.37 1010.72 1009.97 1008.79 1008.00 1007.13 1006.30 1005.77 1005.36 1005.40 1005.34 1005.20 1005.04 1004.93 1004.69 1004.22 1004.12 1004.07
1018.93 1018.97 1018.91 1018.72 1018.84 1018.72 1018.65 1018.38 1018.14 1018.90 1019.27 1019.38 1019.55 1019.44 1018.95 1018.50 1018.52 1018.34 1017.80 1016.85 1015.72 1014.69 1013.64 1012.66 1011.98 1011.52 1010.89 1010.16 1009.51 1008.67 1007.77 1006.73 1006.42 1006.18 1005.85 1005.57 1005.28 1005.00 1004.73 1004.56 1004.42 1004.26 1004.04
1019.05 1019.07 1019.36 1019.27 1019.23 1018.89 1018.61 1017.89 1019.04 1019.44 1019.73 1020.08 1020.36 1020.31 1019.92 1019.61 1019.06 1018.21 1017.33 1016.63 1015.83 1014.65 1013.64 1013.28 1012.86 1012.42 1011.93 1011.39 1010.63 1009.60 1008.46 1007.64 1006.87 1006.23 1005.86 1005.64 1005.41 1005.17 1004.89 1004.59 1004.45 1004.24 1003.98
1020.23 1020.20 1019.54 1019.50 1019.56 1019.15 1018.41 1018.36 1018.48 1019.66 1020.03 1020.28 1020.38 1020.36 1020.22 1019.81 1019.07 1018.07 1017.00 1016.14 1015.69 1014.77 1014.43 1014.12 1013.71 1013.06 1012.57 1012.20 1011.55 1010.69 1009.76 1008.87 1007.77 1006.80 1005.75 1005.22 1004.95 1004.83 1004.76 1004.49 1004.27 1004.15 1003.59
1020.47 1021.01 1020.41 1020.16 1019.46 1019.19 1019.08 1019.10 1019.23 1019.89 1019.98 1019.87 1020.22 1020.31 1020.21 1019.85 1019.15 1018.46 1017.29 1016.16 1015.65 1015.36 1015.33 1014.87 1014.21 1013.65 1013.05 1012.42 1011.76 1011.20 1010.44 1009.93 1008.75 1007.48 1006.27 1005.46 1004.35 1004.31 1004.26 1004.02 1003.88 1003.55 1003.19
1020.37 1020.47 1020.53 1019.69 1019.77 1019.95 1019.37 1019.40 1020.13 1020.82 1020.83 1020.69 1020.48 1020.24 1020.53 1020.05 1019.08 1018.74 1017.57 1017.10 1017.08 1016.62 1016.24 1015.41 1014.14 1013.58 1012.93 1012.31 1011.80 1011.31 1010.82 1010.33 1009.71 1008.66 1007.52 1006.45 1005.21 1004.36 1004.10 1003.93 1003.54 1003.44 1003.33
1021.04 1021.43 1021.01 1019.83 1019.74 1019.62 1019.76 1020.23 1021.01 1021.61 1021.58 1021.57 1021.59 1021.69 1021.36 1020.38 1019.54 1018.71 1018.81 1018.36 1018.02 1017.53 1017.16 1016.42 1014.39 1013.98 1013.31 1012.70 1012.16 1011.48 1010.98 1010.59 1009.91 1009.08 1007.85 1006.67 1005.28 1004.72 1004.21 1003.93 1003.66 1003.40 1003.04
1020.99 1020.94 1021.26 1020.12 1020.38 1020.69 1020.83 1021.39 1021.95 1022.33 1022.26 1022.31 1022.37 1022.57 1021.99 1021.18 1020.59 1019.74 1019.33 1019.22 1018.98 1018.19 1017.51 1016.45 1015.07 1014.65 1014.19 1013.67 1013.25 1012.59 1012.04 1011.75 1011.08 1009.74 1008.28 1007.20 1005.78 1004.73 1004.31 1004.12 1003.92 1003.66 1003.67
1021.13 1021.06 1021.14 1021.18 1021.28 1021.48 1021.70 1022.18 1022.52 1022.65 1022.47 1022.36 1022.41 1022.44 1022.11 1021.22 1021.08 1020.62 1019.28 1019.24 1019.00 1017.89 1017.00 1016.41 1015.97 1015.57 1015.29 1014.84 1014.46 1013.83 1013.22 1012.89 1012.25 1010.63 1008.69 1007.67 1006.43 1005.68 1004.81 1004.22 1004.41 1004.26 1004.15
1021.40 1021.47 1021.71 1021.97 1022.09 1022.48 1022.40 1022.76 1022.87 1022.82 1022.67 1022.40 1022.12 1022.03 1021.81 1021.24 1020.69 1020.19 1019.43 1018.71 1017.95 1017.67 1017.36 1017.13 1016.85 1016.58 1016.39 1016.07 1015.74 1015.21 1014.56 1014.18 1013.58 1011.61 1010.09 1008.22 1006.78 1006.47 1005.50 1004.65 1004.63 1004.49 1004.63
1022.14 1022.32 1022.42 1022.68 1022.96 1022.90 1023.03 1023.29 1023.50 1023.38 1023.09 1022.83 1022.31 1021.27 1020.49 1020.36 1020.23 1019.72 1019.33 1018.86 1018.53 1018.12 1018.10 1017.87 1017.70 1017.79 1017.50 1017.31 1017.00 1016.44 1015.86 1015.60 1014.33 1012.50 1011.00 1008.78 1007.85 1006.94 1006.09 1005.48 1005.22 1005.08 1004.67
1022.84 1022.77 1022.95 1023.24 1023.47 1023.51 1023.28 1023.18 1023.12 1023.06 1022.68 1022.30 1021.78 1021.28 1021.03 1020.76 1020.56 1020.44 1019.98 1019.40 1018.98 1018.80 1018.71 1018.50 1018.38 1018.62 1018.38 1018.25 1018.24 1017.65 1016.95 1015.86 1014.48 1013.53 1011.53 1009.67 1009.11 1008.08 1007.11 1006.30 1005.99 1005.40 1004.99
1023.12 1023.28 1023.37 1023.46 1023.63 1023.56 1023.32 1022.83 1022.37 1022.06 1021.97 1021.70 1021.64 1021.68 1021.61 1021.44 1021.33 1021.00 1020.64 1020.26 1019.75 1019.52 1019.35 1019.33 1018.98 1019.07 1019.38 1019.12 1019.05 1018.55 1017.60 1016.40 1015.09 1013.64 1012.02 1010.67 1010.05 1009.18 1008.56 1007.86 1007.20 1006.55 1006.08
Thickness
5677 5675 5672 5669 5666 5664 5661 5659 5659 5660 5661 5660 5658 5659 5656 5658 5656 5648 5644 5643 5644 5640 5638 5637 5637 5638 5637 5637 5638 5638 5632 5624 5623 5639 5632 5637 5634 5638 5634 5642 5642 5649 5646
5660 5656 5653 5652 5649 5645 5642 5642 5644 5646 5643 5638 5640 5640 5641 5641 5639 5633 5633 5629 5626 5626 5623 5622 5621 5622 5622 5619 5620 5620 5620 5617 5610 5616 5616 5611 5614 5617 5621 5617 5624 5620 5622
5646 5641 5636 5636 5635 5632 5631 5630 5632 5632 5629 5629 5627 5627 5629 5627 5626 5616 5613 5611 5611 5612 5611 5610 5606 5604 5601 5599 5595 5595 5596 5597 5597 5600 5607 5605 5605 5603 5605 5608 5603 5606 5600
5634 5629 5623 5622 5623 5624 5621 5622 5621 5622 5619 5618 5616 5618 5616 5616 5609 5599 5600 5598 5598 5597 5593 5588 5584 5581 5572 5567 5568 5567 5567 5568 5570 5574 5584 5586 5586 5588 5587 5591 5595 5598 5597
5625 5621 5617 5615 5619 5619 5615 5609 5611 5610 5608 5609 5614 5610 5606 5605 5590 5584 5582 5582 5581 5580 5573 5567 5563 5556 5550 5548 5546 5545 5539 5538 5542 5547 5554 5557 5563 5564 5565 5572 5579 5585 5591
5623 5617 5618 5618 5615 5607 5606 5607 5605 5604 5602 5602 5600 5597 5595 5589 5576 5567 5560 5561 5562 5562 5559 5554 5549 5545 5544 5536 5530 5524 5517 5516 5515 5515 5519 5518 5524 5523 5526 5530 5538 5549 5560
5614 5613 5614 5613 5609 5605 5604 5601 5598 5597 5595 5593 5589 5585 5583 5573 5564 5555 5550 5553 5553 5551 5548 5546 5543 5543 5535 5529 5524 5518 5513 5506 5501 5498 5497 5489 5488 5489 5493 5500 5505 5511 5520
5614 5611 5608 5606 5603 5598 5596 5594 5591 5588 5583 5580 5576 5571 5569 5566 5556 5550 5545 5548 5546 5543 5541 5540 5538 5536 5534 5528 5523 5517 5511 5507 5503 5496 5489 5485 5479 5478 5476 5475 5478 5483 5493
5605 5602 5600 5598 5596 5591 5590 5586 5579 5576 5574 5571 5568 5565 5564 5562 5555 5547 5543 5547 5548 5546 5545 5542 5538 5535 5530 5525 5518 5511 5506 5501 5496 5491 5487 5484 5479 5474 5469 5469 5473 5476 5479
5599 5596 5592 5590 5588 5584 5579 5574 5569 5568 5567 5562 5561 5562 5560 5557 5552 5545 5543 5546 5547 5546 5543 5540 5539 5533 5523 5515 5505 5500 5498 5495 5489 5487 5483 5481 5476 5473 5469 5466 5467 5472 5476
5592 5590 5586 5583 5580 5573 5568 5564 5564 5563 5560 5558 5557 5558 5561 5556 5552 5542 5536 5539 5536 5536 5538 5541 5539 5529 5521 5514 5507 5500 5494 5492 5486 5481 5478 5477 5476 5474 5473 5471 5469 5470 5471
5586 5584 5579 5574 5570 5568 5562 5561 5560 5556 5555 5559 5564 5562 5558 5555 5549 5542 5537 5533 5530 5531 5533 5534 5530 5524 5519 5515 5510 5505 5498 5495 5489 5483 5477 5475 5473 5471 5472 5477 5474 5470 5468
5578 5574 5571 5567 5565 5563 5561 5558 5559 5550 5555 5560 5559 5556 5555 5553 5548 5540 5535 5529 5530 5530 5530 5528 5526 5523 5520 5519 5513 5507 5504 5503 5502 5489 5480 5476 5473 5471 5469 5466 5469 5466 5462
5569 5569 5567 5564 5557 5559 5558 5557 5551 5551 5552 5552 5544 5540 5544 5542 5537 5531 5528 5528 5530 5533 5531 5535 5529 5521 5518 5516 5517 5510 5504 5501 5494 5488 5481 5476 5472 5468 5464 5461 5461 5458 5456
5566 5564 5562 5560 5555 5552 5549 5550 5550 5540 5536 5536 5529 5526 5526 5526 5522 5517 5518 5522 5527 5530 5531 5532 5529 5525 5522 5518 5514 5511 5507 5505 5497 5489 5482 5476 5472 5468 5464 5459 5457 5455 5456
5563 5562 5556 5552 5547 5547 5548 5553 5537 5532 5529 5524 5519 5517 5518 5517 5516 5520 5523 5523 5524 5528 5534 5528 5524 5520 5515 5511 5508 5508 5508 5504 5502 5499 5492 5484 5477 5471 5466 5463 5461 5460 5463
5547 5547 5552 5547 5541 5542 5548 5547 5545 5530 5524 5520 5518 5516 5514 5514 5517 5521 5525 5526 5526 5530 5526 5522 5519 5518 5514 5507 5503 5502 5501 5499 5500 5500 5502 5497 5492 5484 5476 5473 5471 5471 5477
5542 5534 5538 5536 5540 5539 5538 5537 5535 5528 5526 5527 5518 5515 5513 5512 5515 5516 5521 5528 5529 5525 5518 5516 5516 5515 5513 5511 5508 5503 5499 5495 5497 5501 5504 5503 5506 5499 5493 5491 5487 5490 5493
5539 5536 5534 5538 5534 5529 5532 5533 5523 5515 5514 5514 5514 5515 5508 5508 5513 5513 5519 5519 5512 5511 5510 5512 5519 5517 5516 5515 5513 5510 5506 5500 5496 5497 5500 5501 5506 5509 5505 5502 5504 5497 5498
5528 5522 5525 5534 5531 5530 5527 5522 5513 5504 5504 5503 5500 5498 5498 5503 5507 5511 5506 5505 5503 5502 5502 5503 5517 5515 5515 5514 5513 5513 5510 5507 5505 5503 5507 5509 5516 5514 5514 5513 5512 5514 5515
5523 5524 5516 5528 5522 5517 5515 5508 5500 5494 5494 5492 5490 5486 5488 5494 5495 5499 5499 5495 5492 5494 5496 5502 5511 5510 5508 5508 5506 5506 5505 5501 5501 5506 5513 5514 5522 5525 5524 5520 5519 5519 5516
5517 5517 5516 5514 5510 5507 5504 5497 5493 5489 5490 5489 5486 5483 5483 5490 5488 5488 5497 5493 5490 5495 5499 5501 5501 5501 5499 5498 5496 5497 5498 5496 5495 5504 5516 5519 5524 5525 5528 5529 5521 5519 5519
5508 5508 5505 5502 5499 5494 5494 5488 5486 5486 5485 5486 5485 5483 5483 5485 5487 5489 5492 5495 5497 5496 5495 5494 5493 5491 5488 5487 5485 5486 5488 5487 5487 5500 5508 5519 5527 5525 5531 5533 5528 5526 5520
5495 5494 5493 5490 5486 5485 5483 5478 5476 5475 5477 5477 5479 5487 5492 5490 5488 5490 5490 5490 5490 5489 5487 5486 5485 5480 5479 5477 5476 5477 5477 5477 5483 5493 5501 5517 5521 5525 5529 5532 5531 5528 5530
5482 5483 5481 5478 5475 5474 5475 5474 5474 5473 5475 5477 5480 5483 5483 5482 5482 5480 5481 5483 5483 5482 5481 5479 5477 5472 5471 5469 5466 5468 5471 5476 5482 5487 5497 5509 5510 5517 5522 5528 5528 5531 5533
5470 5469 5468 5468 5466 5467 5469 5473 5476 5477 5477 5478 5477 5475 5473 5473 5471 5472 5473 5473 5475 5474 5472 5470 5470 5467 5462 5461 5460 5461 5465 5471 5477 5486 5493 5500 5502 5507 5510 5513 5517 5522 5525